Location: Unspecified
(0.0000°N, 0.0000°E)
Time: 00:15:14
(UTC+00:00)

CZ-3C DEB - Pass Details

Date: 21 February 2026
Orbit: 506 x 35764 km, 20.4° (Epoch: 1 August)

Event Time Altitude Azimuth Distance (km) Brightness Sun altitude
Rises 19:48:31 0° 255° (WSW) 12,536 ? -23.3°
Reaches altitude 10° 19:56:25 10° 257° (WSW) 13,550 ? -25.3°
Enters shadow 04:14:23 - 291° (WNW) 24,082 ? -29.3°
Exits shadow 05:10:03 13° 294° (WNW) 10,678 ? -15.6°
Maximum altitude 05:34:27 72° 16° (NNE) 1,571 ? -9.6°
Drops below altitude 10° 05:39:15 10° 101° (E) 2,372 ? -8.4°
Sets 05:40:40 0° 104° (ESE) 2,996 ? -8.1°
